Terminal Aerodrome Forecast
Issued by NWS

Home | Current Version | Previous Version | Text Only | Print | Product List | Glossary On
Versions: 1 2 3 4 5 6 7 8 9 10 11 12 13 14 15 16 17
000
FTAK31 PANC 300913 AAA
TAFACD
TAF AMD
PACD 300913Z 3009/3106 04018G25KT P6SM VCSH SCT025 BKN040
     FM301300 04025G35KT 4SM -SN SCT010 BKN025
     FM301800 03030G40KT 1 1/2SM -SN BLSN BKN012
     FM310000 04030G43KT 5SM -SN SCT010 BKN025
     FM310300 01030G40KT 3SM -SN BKN015=

USA.gov is the U.S. government's official web portal to all federal, state and local government web resources and services.